Location: Chinatown
(37.7966°N, 122.4086°W)
Time: 09:28:10
(UTC+00:00)

Hubble Space Telescope - Visible Passes

Search period start: 21 January 2026 00:00
Search period end: 31 January 2026 00:00
Orbit: 479 x 481 km, 28.5° (Epoch: 20 January)

Date Brightness Start Highest point End Pass type
(mag) Time Alt. Az. Time Alt. Az. Time Alt. Az.
23 Jan 3.1 03:16:52 10° S 03:17:51 12° S 03:17:51 12° S visible
24 Jan 2.9 02:46:59 10° S 02:48:37 12° SSE 02:49:44 11° SSE visible
25 Jan 3.0 02:17:03 10° S 02:18:43 13° SSE 02:20:23 10° SE visible
25 Jan 3.4 03:55:10 10° SW 03:55:42 12° SW 03:55:42 12° SW visible
26 Jan 2.6 03:25:14 10° SW 03:27:30 19° S 03:27:30 19° S visible
27 Jan 2.5 02:55:15 10° SW 02:58:02 19° S 02:59:17 17° SSE visible
28 Jan 2.6 02:25:15 10° SW 02:28:01 19° S 02:30:48 10° SE visible
28 Jan 3.6 04:04:53 10° SW 04:05:11 11° SW 04:05:11 11° SW visible
29 Jan 2.7 01:55:13 10° SW 01:57:59 19° S 02:00:46 10° SE visible
29 Jan 2.9 03:34:51 10° SW 03:36:58 16° SSW 03:36:58 16° SSW visible
30 Jan 2.9 03:04:48 10° SW 03:07:10 16° S 03:08:47 13° SSE visible
